Location: Newark
(41.9364°N, 2.8061°E)
Time: 03:27:05
(UTC+00:00)

X-37B - Pass Details

Date: 02 August 2021
Orbit: 381 x 393 km, 45.0° (Epoch: 29 August)

Event Time Altitude Azimuth Distance (km) Brightness Sun altitude
Exits shadow 02:35:52 20° 127° (SE) 961 2.6 -19.7°
Drops below altitude 10° 02:37:40 10° 94° (E) 1,395 3.9 -19.5°
Sets 02:40:02 0° 78° (ENE) 2,251 5.3 -19.2°
